Pecos, TX

9:43 AM CST on February 23, 2017 (GMT -0600)
Pecos Municipal

Weather History for KPEQ - November, 2012

Change the Weather History Date:

Sunday, November 11, 2012

  Actual Average Record
Temperature  
Mean Temperature 50 °F -  
Max Temperature 63 °F 71 °F 87 °F (1964)
Min Temperature 35 °F 36 °F 17 °F (1950)
Degree Days  
Heating Degree Days 16    
Moisture  
Dew Point 20 °F    
Average Humidity 28    
Maximum Humidity 45    
Minimum Humidity 13    
Precipitation  
Precipitation 0.00 in - - ()
Sea Level Pressure  
Sea Level Pressure 30.07 in    
Wind  
Wind Speed 11 mph (WNW)    
Max Wind Speed 26 mph    
Max Gust Speed 32 mph    
Visibility 10 miles    
Events      
Averages and records for this station are not official NWS values.
T = Trace of Precipitation, MM = Missing Value Source: NWS Daily Summary

Daily Weather History Graph

Daily Weather History Graph

Search for Another Location

Airport or City:

Trip Planner

Search our weather history database for the weather conditions in past years. The results will help you decide how hot, cold, wet, or windy it might be!

Date:

Astronomy

Nov. 11, 2012 Rise Set
Actual Time 7:18 AM CST 5:57 PM CST
Civil Twilight 6:53 AM CST 6:22 PM CST
Nautical Twilight 6:23 AM CST 6:52 PM CST
Astronomical Twilight 5:55 AM CST 7:20 PM CST
Moon 4:43 AM CST (11/11) 4:16 PM CST (11/11)
Length of Visible Light 11h 29m
Length of Day
10h 38m
Waning Crescent, 7% of the Moon is Illuminated
Nov 11
Waning Crescent
Nov 13
New
Nov 20
First Quarter
Nov 28
Full
Dec 6
Last Quarter

Hourly Weather History & Observations

Time (CST) Temp. Windchill Dew Point Humidity Pressure Visibility Wind Dir Wind Speed Gust Speed Precip Events Conditions
12:15 AM 61.3 °F - 33.4 °F 35% 29.79 in 10.0 mi NW 4.6 mph - N/A   Overcast
12:35 AM 60.1 °F - 33.3 °F 36% 29.80 in 10.0 mi NNW 5.8 mph - N/A   Scattered Clouds
12:55 AM 58.5 °F - 33.1 °F 38% 29.81 in 10.0 mi NNW 6.9 mph - N/A   Clear
1:15 AM 57.4 °F - 33.6 °F 41% 29.82 in 10.0 mi NW 10.4 mph - N/A   Clear
1:35 AM 58.8 °F - 34.0 °F 39% 29.83 in 10.0 mi WNW 9.2 mph - N/A   Clear
1:55 AM 58.8 °F - 33.8 °F 39% 29.83 in 10.0 mi WNW 10.4 mph - N/A   Clear
2:15 AM 57.2 °F - 34.0 °F 42% 29.84 in 10.0 mi WNW 10.4 mph - N/A   Clear
2:35 AM 55.8 °F - 33.6 °F 43% 29.85 in 10.0 mi NW 10.4 mph - N/A   Clear
2:55 AM 56.5 °F - 32.4 °F 40% 29.86 in 10.0 mi WNW 16.1 mph - N/A   Clear
3:15 AM 57.4 °F - 31.5 °F 37% 29.88 in 10.0 mi WNW 18.4 mph - N/A   Clear
3:35 AM 56.1 °F - 31.1 °F 39% 29.88 in 10.0 mi WNW 11.5 mph - N/A   Clear
3:55 AM 54.1 °F - 31.6 °F 42% 29.89 in 10.0 mi West 12.7 mph - N/A   Clear
4:15 AM 54.1 °F - 30.2 °F 40% 29.89 in 10.0 mi WNW 12.7 mph - N/A   Clear
4:35 AM 53.6 °F - 30.0 °F 41% 29.91 in 10.0 mi West 9.2 mph - N/A   Clear
4:55 AM 53.4 °F - 29.3 °F 40% 29.92 in 10.0 mi West 10.4 mph - N/A   Clear
5:35 AM 54.3 °F - 27.3 °F 35% 29.95 in 10.0 mi West 17.3 mph - N/A   Clear
5:55 AM 54.0 °F - 26.6 °F 35% 29.96 in 10.0 mi West 16.1 mph - N/A   Clear
6:15 AM 52.0 °F - 26.6 °F 37% 29.98 in 10.0 mi NNW 9.2 mph - N/A   Clear
6:35 AM 50.9 °F - 27.0 °F 40% 30.00 in 10.0 mi WNW 9.2 mph - N/A   Clear
6:55 AM 49.8 °F - 25.0 °F 38% 30.02 in 10.0 mi NW 3.5 mph - N/A   Clear
7:35 AM 48.9 °F - 25.3 °F 40% 30.04 in 10.0 mi Calm Calm - N/A   Clear
7:55 AM 46.8 °F - 26.4 °F 45% 30.06 in 10.0 mi West 6.9 mph - N/A   Clear
8:15 AM 48.6 °F - 27.7 °F 44% 30.06 in 10.0 mi West 3.5 mph - N/A   Clear
8:35 AM 50.5 °F - 27.7 °F 41% 30.08 in 10.0 mi West 4.6 mph - N/A   Clear
8:55 AM 52.9 °F - 27.3 °F 37% 30.09 in 10.0 mi WNW 6.9 mph - N/A   Clear
9:15 AM 54.1 °F - 25.9 °F 34% 30.10 in 10.0 mi WNW 5.8 mph - N/A   Clear
9:35 AM 55.6 °F - 25.7 °F 32% 30.10 in 10.0 mi West 8.1 mph - N/A   Clear
9:55 AM 56.8 °F - 25.3 °F 30% 30.11 in 10.0 mi WSW 8.1 mph - N/A   Clear
10:15 AM 58.3 °F - 24.1 °F 27% 30.10 in 10.0 mi West 17.3 mph 24.2 mph N/A   Clear
10:35 AM 59.7 °F - 24.3 °F 26% 30.11 in 10.0 mi West 26.5 mph - N/A   Clear
10:55 AM 59.9 °F - 24.1 °F 25% 30.10 in 10.0 mi West 20.7 mph 29.9 mph N/A   Clear
11:35 AM 61.0 °F - 23.9 °F 24% 30.11 in 10.0 mi West 21.9 mph 32.2 mph N/A   Clear
12:15 PM 61.9 °F - 23.7 °F 23% 30.11 in 10.0 mi West 20.7 mph 26.5 mph N/A   Clear
12:35 PM 62.6 °F - 23.4 °F 22% 30.10 in 10.0 mi West 18.4 mph 28.8 mph N/A   Clear
12:55 PM 63.0 °F - 22.5 °F 21% 30.10 in 10.0 mi West 19.6 mph 32.2 mph N/A   Clear
1:15 PM 62.8 °F - 21.9 °F 21% 30.09 in 10.0 mi WNW 17.3 mph 27.6 mph N/A   Clear
1:35 PM 62.6 °F - 21.2 °F 20% 30.09 in 10.0 mi West 19.6 mph 31.1 mph N/A   Clear
1:55 PM 62.8 °F - 21.2 °F 20% 30.09 in 10.0 mi West 20.7 mph 29.9 mph N/A   Clear
2:35 PM 62.8 °F - 17.8 °F 18% 30.08 in 10.0 mi West 19.6 mph 31.1 mph N/A   Clear
2:55 PM 63.1 °F - 17.2 °F 17% 30.09 in 10.0 mi West 25.3 mph 29.9 mph N/A   Clear
3:15 PM 63.0 °F - 15.4 °F 16% 30.09 in 10.0 mi West 18.4 mph 27.6 mph N/A   Clear
3:35 PM 62.6 °F - 14.9 °F 16% 30.09 in 10.0 mi WNW 19.6 mph 27.6 mph N/A   Clear
3:55 PM 62.4 °F - 14.0 °F 15% 30.09 in 10.0 mi WNW 19.6 mph 28.8 mph N/A   Clear
4:15 PM 61.9 °F - 12.7 °F 15% 30.10 in 10.0 mi West 18.4 mph 27.6 mph N/A   Clear
4:35 PM 61.3 °F - 11.8 °F 14% 30.10 in 10.0 mi West 20.7 mph 25.3 mph N/A   Clear
4:55 PM 61.0 °F - 10.8 °F 14% 30.11 in 10.0 mi WNW 18.4 mph - N/A   Clear
5:15 PM 60.4 °F - 8.8 °F 13% 30.11 in 10.0 mi West 24.2 mph 28.8 mph N/A   Clear
5:35 PM 59.2 °F - 7.9 °F 13% 30.12 in 10.0 mi West 19.6 mph - N/A   Clear
5:55 PM 57.4 °F - 6.8 °F 13% 30.13 in 10.0 mi West 16.1 mph 25.3 mph N/A   Clear
6:15 PM 55.4 °F - 5.9 °F 14% 30.15 in 10.0 mi West 9.2 mph - N/A   Clear
6:35 PM 52.9 °F - 6.8 °F 16% 30.17 in 10.0 mi West 5.8 mph - N/A   Clear
6:55 PM 51.1 °F - 5.9 °F 16% 30.18 in 10.0 mi West 8.1 mph - N/A   Clear
7:15 PM 50.2 °F - 5.7 °F 16% 30.19 in 10.0 mi WNW 9.2 mph - N/A   Clear
7:35 PM 48.6 °F - 5.0 °F 17% 30.20 in 10.0 mi WNW 10.4 mph - N/A   Clear
7:55 PM 46.6 °F - 8.4 °F 21% 30.22 in 10.0 mi WNW 6.9 mph - N/A   Clear
8:15 PM 43.9 °F 39.9 °F 9.0 °F 24% 30.24 in 10.0 mi WNW 6.9 mph - N/A   Clear
8:35 PM 42.4 °F 39.6 °F 9.3 °F 26% 30.25 in 10.0 mi WNW 4.6 mph - N/A   Clear
8:55 PM 43.9 °F 39.9 °F 9.0 °F 24% 30.26 in 10.0 mi NNW 6.9 mph - N/A   Clear
9:15 PM 41.4 °F 38.4 °F 9.0 °F 26% 30.27 in 10.0 mi NW 4.6 mph - N/A   Clear
9:35 PM 40.6 °F 36.7 °F 8.6 °F 27% 30.29 in 10.0 mi NW 5.8 mph - N/A   Clear
9:55 PM 39.0 °F 35.7 °F 10.0 °F 30% 30.30 in 10.0 mi NW 4.6 mph - N/A   Clear
10:15 PM 39.2 °F 37.0 °F 10.4 °F 31% 30.31 in 10.0 mi NW 3.5 mph - N/A   Clear
10:35 PM 39.0 °F 35.7 °F 8.6 °F 29% 30.33 in 10.0 mi NW 4.6 mph - N/A   Clear
10:55 PM 37.9 °F 33.5 °F 7.9 °F 29% 30.33 in 10.0 mi NW 5.8 mph - N/A   Clear
11:15 PM 36.5 °F 31.0 °F 7.3 °F 30% 30.33 in 10.0 mi NW 6.9 mph - N/A   Clear
11:35 PM 35.4 °F 30.5 °F 6.8 °F 30% 30.34 in 10.0 mi NW 5.8 mph - N/A   Clear